Weather observations for the past three days for
Milwaukee-Timmerman
Imperial (Metric)
Date Time (cdt) Wind (mph) Vis. (mi.) Weather Sky Cond. Temperature (ºF) Relative Humidity Wind Chill (°F) Heat Index (°F) Pressure Precipitation (in)
Air Dwpt 6 hour altimeter (in) sea level (mb) 1 hr 3 hr 6 hr
Max. Min.
17 05:15 W 3 10.00 Fair CLR 62.6 59 88% 29.94 0.0
17 05:00 W 3 10.00 Fair CLR 62.6 59 88% 29.92 0.0
17 04:35 Calm 10.00 Fair CLR 62.6 59 88% 29.92 0.0
17 04:15 Calm 10.00 Fair CLR 64.4 59 83% 29.91 0.0
17 03:55 Calm 10.00 Fair CLR 64.4 59 83% 29.91 0.0
17 03:35 W 3 10.00 Partly Cloudy SCT085 64.4 59 83% 29.91 0.0
17 03:15 Calm 10.00 Mostly Cloudy BKN095 64.4 59 83% 29.91 0.0
17 02:55 Calm 10.00 Partly Cloudy SCT095 64.4 59 83% 29.9 0.0
17 02:35 Calm 10.00 Partly Cloudy SCT070 64.4 59 83% 29.9 0.0
17 02:15 NW 5 10.00 Fair CLR 64.4 59 83% 29.9 0.0
17 01:55 Calm 10.00 Fair CLR 66.2 59 78% 29.9 0.0
17 01:35 Calm 10.00 Partly Cloudy SCT120 68 60.8 78% 29.9 0.0
17 01:15 Calm 10.00 Mostly Cloudy SCT070 SCT095 BKN120 68 60.8 78% 29.91 0.0
17 00:55 W 5 10.00 Mostly Cloudy BKN070 BKN095 BKN120 68 62.6 83% 29.91 0.0
17 00:35 Calm 10.00 Partly Cloudy SCT120 68 64.4 88% 29.91 0.0
17 00:15 Calm 10.00 Partly Cloudy SCT120 68 64.4 88% 29.91 0.0
16 23:55 Calm 10.00 Mostly Cloudy BKN120 68 66.2 94% 29.91 0.0
16 23:35 Calm 7.00 Mostly Cloudy BKN120 68 66.2 94% 29.9 0.0
16 23:15 Calm 7.00 Partly Cloudy SCT120 68 66.2 94% 29.89 0.0
16 22:55 Calm 7.00 Partly Cloudy SCT120 68 66.2 94% 29.89 0.0
16 22:35 Calm 10.00 Fair CLR 68 66.2 94% 29.89 0.0
16 22:15 S 3 10.00 Fair CLR 68 66.2 94% 29.88 0.0
16 21:55 Calm 10.00 Fair CLR 69.8 66.2 88% 29.88 0.0
16 21:35 Calm 10.00 Fair CLR 69.8 66.2 88% 29.89 0.0
16 21:15 Calm 10.00 Fair CLR 69.8 66.2 88% 29.87 0.0
16 20:45 Calm 10.00 Fair CLR 71.6 66.2 83% 29.86 0.0
16 19:51 SE 6 10.00 Fair CLR 71.6 66.2 83% 29.86 0.0
16 18:47 E 5 10.00 Partly Cloudy SCT050 77 68 74% 79 29.84 0.0
16 16:47 E 7 10.00 Mostly Cloudy SCT038 BKN049 77 69.8 79% 79 29.84 0.0
16 15:55 NE 6 10.00 Overcast SCT029 OVC060 80.6 69.8 70% 84 29.84 0.0
16 14:48 Calm 10.00 Overcast SCT024 OVC065 78.8 68 70% 81 29.85 0.0
16 13:53 NE 6 10.00 Partly Cloudy SCT020 77 68 74% 79 29.83 0.0
16 12:45 SE 9 10.00 Overcast BKN018 OVC026 73.4 68 83% 29.83 0.0
16 11:45 NE 7 10.00 Overcast SCT015 OVC021 73.4 68 83% 29.82 0.0
16 10:45 Calm 10.00 Overcast BKN017 OVC024 73.4 69.8 89% 29.82 0.0
16 09:50 W 6 10.00 Overcast OVC010 73.4 69.8 89% 29.81 0.0
16 08:45 W 5 10.00 Overcast OVC008 73.4 69.8 89% 29.79 0.0
16 07:45 W 10 10.00 Mostly Cloudy BKN008 BKN038 71.6 69.8 94% 29.78 0.0
16 07:15 W 8 10.00 Overcast SCT008 BKN028 OVC035 69.8 68 94% 29.77 0.0
16 06:55 W 7 10.00 Overcast OVC008 69.8 68 94% 29.77 0.0
16 06:40 W 6 10.00 Overcast OVC008 69.8 68 94% 29.76 0.0
16 06:15 W 6 10.00 Overcast OVC012 68 68 100% 29.76 0.0
16 05:55 W 9 10.00 Overcast OVC010 68 68 100% 29.76 0.0
16 05:35 W 9 10.00 Mostly Cloudy BKN014 BKN041 68 66.2 94% 29.75 0.0
16 05:20 W 7 10.00 Overcast SCT014 BKN021 OVC050 68 66.2 94% 29.75 0.0
16 04:55 SW 8 10.00 Overcast SCT019 BKN026 OVC050 68 68 100% 29.75 0.0
16 04:35 SW 10 10.00 Light Rain BKN024 BKN043 OVC080 69.8 66.2 88% 29.75 0.0
16 04:15 W 7 10.00 Mostly Cloudy BKN024 BKN036 69.8 64.4 83% 29.74 0.0
16 03:55 W 9 10.00 Mostly Cloudy SCT036 BKN100 69.8 64.4 83% 29.74 0.0
16 03:35 SW 9 10.00 Mostly Cloudy SCT018 SCT032 BKN100 69.8 64.4 83% 29.73 0.0
16 03:15 SW 15 10.00 Partly Cloudy SCT032 SCT048 SCT060 69.8 64.4 83% 29.74 0.0
16 02:55 W 10 G 16 10.00 Fair CLR 69.8 64.4 83% 29.73 0.0
16 02:35 SW 7 10.00 Fair CLR 68 64.4 88% 29.73 0.0
16 02:15 SW 8 10.00 Fair CLR 68 64.4 88% 29.73 0.0
16 01:55 SW 3 10.00 Fair CLR 68 64.4 88% 29.74 0.0
16 01:35 SW 7 10.00 Partly Cloudy SCT055 SCT070 SCT095 68 64.4 88% 29.74 0.0
16 01:15 SW 6 10.00 Partly Cloudy SCT095 68 66.2 94% 29.74 0.0
16 00:55 SW 9 10.00 Partly Cloudy SCT120 68 66.2 94% 29.75 0.0
16 00:35 SW 9 10.00 Partly Cloudy SCT120 69.8 66.2 88% 29.75 0.0
16 00:15 SW 8 10.00 Fair CLR 69.8 66.2 88% 29.74 0.0
15 23:55 W 8 10.00 Partly Cloudy SCT110 68 66.2 94% 29.74 0.0 0.01
15 23:35 W 15 10.00 Light Rain SCT080 BKN100 68 66.2 94% 29.74 0.0 0.01
15 23:15 SW 8 10.00 Light Rain SCT090 SCT120 68 66.2 94% 29.71 0.0
15 22:55 W 7 10.00 Light Rain SCT120 68 66.2 94% 29.7 0.0 0.02
15 22:35 SW 8 10.00 Rain SCT120 68 66.2 94% 29.7 0.0 0.01
15 22:15 S 10 10.00 Light Rain SCT013 SCT024 SCT050 69.8 68 94% 29.7 0.0
15 21:55 S 13 G 22 10.00 Rain SCT120 75.2 71.6 89% 75 29.71 0.0 0.03
15 21:35 S 6 10.00 Light Rain SCT120 77 73.4 89% 78 29.7 0.0 0.01
15 21:15 E 5 10.00 Light Rain SCT090 SCT110 80.6 73.4 79% 85 29.66 0.0 0.01
15 20:45 Calm 10.00 Light Rain SCT110 82.4 71.6 70% 87 29.67 0.0
15 19:45 Calm 10.00 Fair CLR 82.4 71.6 70% 87 29.7 0.0
15 18:45 S 8 10.00 Fair CLR 84.2 71.6 66% 90 29.7 0.0
15 17:45 SW 7 10.00 Fair CLR 86 71.6 62% 92 29.73 0.0
15 16:45 SW 10 10.00 Fair CLR 86 69.8 59% 91 29.76 0.0
15 15:45 S 9 G 17 10.00 Partly Cloudy SCT038 SCT045 86 69.8 59% 91 29.77 0.0
15 14:45 S 13 G 17 10.00 Partly Cloudy SCT038 SCT044 86 71.6 62% 92 29.8 0.0
15 13:45 SW 6 10.00 Mostly Cloudy SCT039 SCT048 BKN050 86 71.6 62% 92 29.81 0.0
15 12:45 W 8 10.00 Mostly Cloudy SCT030 BKN035 BKN043 86 71.6 62% 92 29.85 0.0
15 11:45 W 8 10.00 Partly Cloudy SCT029 SCT035 SCT060 84.2 71.6 66% 90 29.87 0.0
15 10:45 W 8 10.00 Fair CLR 82.4 73.4 74% 88 29.87 0.0
15 09:45 W 7 10.00 Fair CLR 80.6 71.6 74% 85 29.85 0.0
15 08:45 W 6 10.00 Fair CLR 78.8 69.8 74% 81 29.86 0.0
15 07:45 W 7 10.00 Fair CLR 73.4 68 83% 29.86 0.0
15 07:15 W 8 10.00 Fair CLR 71.6 66.2 83% 29.86 0.0
15 06:50 W 7 10.00 Partly Cloudy SCT042 69.8 66.2 88% 29.86 0.0
15 06:35 W 6 10.00 Partly Cloudy SCT042 69.8 66.2 88% 29.86 0.0
15 06:15 W 7 10.00 Partly Cloudy SCT055 68 66.2 94% 29.86 0.0
15 05:55 W 7 10.00 Partly Cloudy SCT055 68 66.2 94% 29.86 0.0
15 05:35 W 6 10.00 Partly Cloudy SCT040 SCT055 68 66.2 94% 29.87 0.0
15 05:15 W 7 10.00 Mostly Cloudy SCT032 BKN037 BKN055 68 64.4 88% 29.87 0.0
15 04:55 W 8 10.00 Overcast SCT030 BKN037 OVC048 68 64.4 88% 29.86 0.0
15 04:35 W 6 10.00 Overcast BKN037 OVC043 68 64.4 88% 29.86 0.0
15 04:15 W 8 10.00 Mostly Cloudy SCT038 BKN046 BKN050 68 64.4 88% 29.85 0.0
15 03:55 W 7 10.00 Partly Cloudy SCT050 68 64.4 88% 29.85 0.0
15 03:40 W 6 10.00 Fair CLR 68 64.4 88% 29.85 0.0
15 03:15 W 8 10.00 Partly Cloudy SCT037 68 64.4 88% 29.84 0.0
15 02:55 W 3 10.00 Mostly Cloudy BKN035 BKN045 68 66.2 94% 29.85 0.0
15 02:35 Calm 10.00 Partly Cloudy SCT035 SCT045 68 64.4 88% 29.85 0.0
15 02:15 Calm 10.00 Mostly Cloudy BKN035 68 66.2 94% 29.83 0.0
15 01:55 Calm 10.00 Fair CLR 68 66.2 94% 29.84 0.0
15 01:35 Calm 10.00 Fair CLR 68 66.2 94% 29.84 0.0
15 01:15 Calm 10.00 Fair CLR 68 66.2 94% 29.84 0.0
15 00:55 S 5 10.00 Partly Cloudy SCT085 68 66.2 94% 29.85 0.0
15 00:35 SW 3 10.00 Partly Cloudy SCT085 68 66.2 94% 29.86 0.0
15 00:15 W 8 10.00 Partly Cloudy SCT060 SCT075 68 66.2 94% 29.86 0.0
14 23:55 S 3 10.00 Light Rain SCT049 SCT060 BKN070 69.8 66.2 88% 29.86 0.0 0.02
14 23:35 S 8 10.00 Light Rain SCT042 SCT060 BKN100 69.8 66.2 88% 29.86 0.0 0.01
14 23:20 SW 12 10.00 Light Rain BKN042 BKN060 BKN110 69.8 68 94% 29.88 0.0 0.01
14 22:55 Calm 10.00 Rain BKN110 69.8 68 94% 29.87 0.0 0.04
14 22:35 SW 5 10.00 Light Rain SCT017 SCT032 BKN110 71.6 68 88% 29.86 0.0 0.02
14 22:15 SW 26 G 32 10.00 Light Rain and Windy SCT017 SCT028 BKN110 75.2 73.4 94% 74 29.86 0.0 0.02
14 21:55 Calm 0.75 Rain BKN050 BKN065 OVC085 77 73.4 89% 78 29.86 0.0 0.06
14 21:35 SW 5 7.00 Rain BKN060 OVC065 77 73.4 89% 78 29.88 0.0 0.03
14 21:15 SW 5 7.00 Rain SCT060 SCT090 BKN110 78.8 73.4 84% 82 29.85 0.0 0.01
14 20:45 S 6 10.00 Showers in Vicinity SCT048 SCT050 BKN110 80.6 73.4 79% 85 29.84 0.0
14 19:45 SW 6 10.00 Mostly Cloudy BKN050 80.6 71.6 74% 85 29.86 0.0
14 18:45 SW 8 10.00 Mostly Cloudy BKN050 82.4 71.6 70% 87 29.89 0.0
14 17:51 SW 10 10.00 Mostly Cloudy SCT031 BKN048 82.4 71.6 70% 87 29.89 0.0
14 16:45 W 5 10.00 Fair CLR 86 71.6 62% 92 29.89 0.0
14 15:45 S 7 10.00 Fair CLR 86 71.6 62% 92 29.89 0.0
14 14:45 NW 6 10.00 Fair CLR 84.2 69.8 62% 88 29.91 0.0
14 13:45 W 9 10.00 Fair CLR 82.4 69.8 66% 86 29.91 0.0
14 12:45 SW 15 G 22 10.00 Fair CLR 80.6 68 66% 83 29.92 0.0
14 11:45 SW 13 10.00 Fair CLR 77 66.2 69% 79 29.92 0.0
14 10:45 SW 12 10.00 Fair CLR 73.4 69.8 89% 29.91 0.0
14 09:45 S 13 10.00 Fair CLR 69.8 66.2 88% 29.9 0.0
14 08:45 S 6 10.00 Fair CLR 69.8 66.2 88% 29.92 0.0
14 07:45 SW 6 10.00 Light Rain SCT080 OVC110 68 66.2 94% 30 0.0
14 07:15 W 9 10.00 Overcast BKN014 OVC070 68 64.4 88% 30.01 0.0
14 06:55 W 6 10.00 Overcast BKN016 BKN021 OVC080 68 64.4 88% 30.02 0.0
14 06:35 Calm 10.00 Overcast OVC080 68 64.4 88% 29.99 0.0
14 06:15 Calm 10.00 Mostly Cloudy BKN080 68 64.4 88% 29.98 0.0
14 05:55 Calm 10.00 Partly Cloudy SCT080 66.2 64.4 94% 29.99 0.0
14 05:35 Calm 10.00 Fair CLR 66.2 64.4 94% 29.99 0.0
Date Time (cdt) Wind (mph) Vis. (mi.) Weather Sky Cond. Air Dwpt Max. Min. Relative Humidity Wind Chill (°F) Heat Index (°F) altimeter (in) sea level (mb) 1 hr 3 hr 6 hr
6 hour
Temperature (ºF) Pressure Precipitation (in)